Regional Weather Roundup
Issued by NWS

Home | Current Version | Previous Version | Text Only | Print | Product List | Glossary On
Versions: 1 2 3 4 5 6 7 8 9 10 11 12 13 14 15 16 17 18 19 20 21 22 23 24 25 26 27 28 29 30 31 32 33 34 35 36 37 38 39 40 41 42 43 44 45 46 47 48 49 50
652
ASUS44 KLIX 250305
RWRLA
LOUISIANA WEATHER ROUNDUP
NATIONAL WEATHER SERVICE NEW ORLEANS LA
1000 PM CDT THU APR 24 2014

NOTE: "FAIR" INDICATES FEW OR NO CLOUDS BELOW 12,000 FEET WITH NO
      SIGNIFICANT WEATHER AND/OR OBSTRUCTIONS TO VISIBILITY.
      SKY/WX - SKY CONDITION AND SIGNIFICANT WEATHER.
      TMP - AIR TEMPERATURE.    DP   - DEWPOINT TEMPERATURE.
      RH  - RELATIVE HUMIDITY.  PRES - PRESSURE.
      HX  - HEAT INDEX.         WCI  - WIND CHILL INDEX.

*  THESE STATIONS ARE NOT NWS OR FAA STATIONS AND ARE NOT UNDER
   NWS QUALITY CONTROL.

LAZ040-048-061>063-065-066-069-250400-
SOUTHEAST LOUISIANA

CITY           SKY/WX    TMP DP  RH WIND       PRES   REMARKS
N.O. AUDUBON     N/A     73  67  81 MISG        N/A
N.O. INTL ARPT PTCLDY    72  67  84 S9        29.93R
N.O. LAKEFRONT CLEAR     72  66  81 S10       29.93R
N.O. DOWNTOWN* FAIR      75  63  64 S9        29.93S
SLIDELL        CLEAR     73  66  78 S10       29.91R
BATON ROUGE    CLOUDY    74  65  73 S20       29.91R
BOOTHVILLE     CLOUDY    72  68  87 S9        29.95R
BELLE CHASSE   MOCLDY    70  64  81 S7        29.93R
BOGALUSA*        N/A     73  65  77 S8        29.92R
GALLIANO*      CLOUDY    75  68  78 S7        29.95R
NEW ROADS*     CLOUDY    73  65  76 S9G16     29.91R
GONZALES*        N/A     71  67  88 SW3       29.92R
HAMMOND*       PTCLDY    73  64  73 S8        29.93R
HOUMA*           N/A     70  65  84 CALM      29.93S
PORT FOURCHON* MOCLDY    73  70  88 S5        29.97R

$$

LAZ041-044-053-054-250400-
SOUTHWEST LOUISIANA

CITY           SKY/WX    TMP DP  RH WIND       PRES   REMARKS
LAKE CHARLES   CLOUDY    72  68  87 SW5       29.91R
LAFAYETTE      CLOUDY    73  68  84 SW9       29.92R
PATTERSON      PTCLDY    70  68  94 S6        29.96S
SALT POINT       N/A     74  69  85 VRB3      29.93R
NEW IBERIA     CLOUDY    73  68  84 S9        29.92R
CHENAULT AIRPK PTCLDY    72  67  84 S7        29.92R

$$

LAZ027-028-250400-
CENTRAL LOUISIANA

CITY           SKY/WX    TMP DP  RH WIND       PRES   REMARKS
FORT POLK      MOCLDY    72  66  81 S5        29.90R
ALEXANDRIA INT CLEAR     73  66  78 SW7       29.87R
ALEXANDRIA     CLOUDY    75  65  70 SW7       29.89R

$$

LAZ001-002-250400-
NORTHWEST LOUISIANA

CITY           SKY/WX    TMP DP  RH WIND       PRES   REMARKS
SHREVEPORT     PTCLDY    73  64  73 NW7       29.87R
BARKSDALE AFB  NOT AVBL
DTN SHREVEPORT CLEAR     70  64  81 W3        29.87R

$$

LAZ014-016-250400-
NORTHEAST LOUISIANA

CITY           SKY/WX    TMP DP  RH WIND       PRES   REMARKS
MONROE         PTCLDY    69  65  86 SW6       29.86R
TALLULAH       CLOUDY    77  65  66 W9        29.86R

$$




USA.gov is the U.S. government's official web portal to all federal, state and local government web resources and services.